Regional Weather Roundup
Issued by NWS

Home | Current Version | Previous Version | Graphics & Text | Print | Product List | Glossary Off
Versions: 1 2 3 4 5 6 7 8 9 10 11 12 13 14 15 16 17 18 19 20 21 22 23 24 25 26 27 28 29 30 31 32 33 34 35 36 37 38 39 40 41 42 43 44 45 46 47 48 49 50

000
ASUS43 KTOP 231759
RWRKS

WEATHER ROUNDUP FOR KANSAS
NATIONAL WEATHER SERVICE GOODLAND KS
100 PM CDT WED AUG 23 2017

NOTE:  "FAIR" INDICATES FEW OR NO CLOUDS BELOW 12,000 FEET WITH NO
SIGNIFICANT WEATHER AND/OR OBSTRUCTIONS TO VISIBILITY.

KSZ001>006-013>018-027>032-041>047-231900-
NORTHWEST KANSAS

CITY           SKY/WX    TMP DP  RH WIND       PRES   REMARKS
GOODLAND       SUNNY     78  61  55 S17G24    30.16F
6HR MIN TEMP:  54; 6HR MAX TEMP:  78;

HAYS             N/A     78  48  34 MISG        N/A
HILL CITY      SUNNY     81  46  29 S12G18    30.16F
6HR MIN TEMP:  52; 6HR MAX TEMP:  81;

RUSSELL        SUNNY     79  45  29 S9G18     30.14F
6HR MIN TEMP:  53; 6HR MAX TEMP:  80;

$$

KSZ061>065-074>080-084>089-231900-
SOUTHWEST KANSAS

CITY           SKY/WX    TMP DP  RH WIND       PRES   REMARKS
DODGE CITY     SUNNY     80  49  33 SE3       30.17F
GARDEN CITY    SUNNY     78  55  44 S9        30.17F
6HR MIN TEMP:  54; 6HR MAX TEMP:  78;

GREAT BEND     SUNNY     78  49  35 S6        30.16F
LIBERAL        MOSUNNY   77  63  61 MISG      30.18F
$$

KSZ066>073-081>083-090>101-231900-
SOUTHEAST KANSAS

CITY           SKY/WX    TMP DP  RH WIND       PRES   REMARKS
CHANUTE        SUNNY     78  55  44 NE8       30.13F
6HR MIN TEMP:  60; 6HR MAX TEMP:  79;

COFFEYVILLE    SUNNY     80  57  45 E9        30.10F
6HR MIN TEMP:  59; 6HR MAX TEMP:  80;

HUTCHINSON     SUNNY     78  50  37 VRB5      30.14F
6HR MIN TEMP:  54; 6HR MAX TEMP:  78;

MEDICINE LODGE   N/A     78  49  35 E5        30.13F
NEWTON         SUNNY     77  52  41 VRB3      30.15F
PARSONS        SUNNY     78  56  46 VRB6      30.13F
6HR MIN TEMP:  58; 6HR MAX TEMP:  79;

WICHITA INTL   SUNNY     81  51  35 E7        30.13F
6HR MIN TEMP:  60; 6HR MAX TEMP:  81;

WICHITA JABRA  SUNNY     78  53  41 E6        30.13F
6HR MIN TEMP:  55; 6HR MAX TEMP:  78;

WINFIELD       SUNNY     78  55  44 MISG      30.13F
6HR MIN TEMP:  59; 6HR MAX TEMP:  79;

$$

KSZ007>012-019>026-033>040-048>060-102>105-231900-
NORTHEAST KANSAS

CITY           SKY/WX    TMP DP  RH WIND       PRES   REMARKS
CONCORDIA      SUNNY     77  52  41 VRB6      30.15F
6HR MIN TEMP:  51; 6HR MAX TEMP:  77;

EMPORIA        SUNNY     75  54  47 E5        30.14F
6HR MIN TEMP:  54; 6HR MAX TEMP:  75;

LAWRENCE       SUNNY     77  55  46 N5        30.14F
6HR MIN TEMP:  54; 6HR MAX TEMP:  77;

MANHATTAN      SUNNY     77  54  44 E6        30.14F
6HR MIN TEMP:  52; 6HR MAX TEMP:  78;

OLATHE IND     SUNNY     74  53  48 CALM      30.15F
6HR MIN TEMP:  56; 6HR MAX TEMP:  76;

OLATHE EXE     SUNNY     73  53  49 CALM      30.15F
6HR MIN TEMP:  58; 6HR MAX TEMP:  75;

SALINA         SUNNY     82  47  29 SE8       30.14F
6HR MIN TEMP:  54; 6HR MAX TEMP:  82;

TOPEKA BILLARD SUNNY     77  53  43 VRB3      30.14F
6HR MIN TEMP:  55; 6HR MAX TEMP:  77;

TOPEKA FORBES  SUNNY     78  55  44 CALM      30.14F
6HR MIN TEMP:  54; 6HR MAX TEMP:  79;

$$




USA.gov is the U.S. government's official web portal to all federal, state and local government web resources and services.